Change the Weather History Date:

Friday, November 28, 2014

  Actual Average Record
Temperature  
Mean Temperature 26 °F -  
Max Temperature 32 °F 44 °F 69 °F (1990)
Min Temperature 21 °F 29 °F 5 °F (1955)
Degree Days  
Heating Degree Days 40    
Moisture  
Dew Point 19 °F    
Average Humidity 74    
Maximum Humidity 82    
Minimum Humidity 63    
Precipitation  
Precipitation 0.00 in - - ()
Sea Level Pressure  
Sea Level Pressure 30.27 in    
Wind  
Wind Speed 7 mph (SSW)    
Max Wind Speed 13 mph    
Max Gust Speed -    
Visibility 8 miles    
Events Snow    
Averages and records for this station are not official NWS values.
T = Trace of Precipitation, MM = Missing Value Source: NWS Daily Summary

Daily Weather History Graph

Daily Weather History Graph

Search for Another Location

Airport or City:

Trip Planner

Search our weather history database for the weather conditions in past years. The results will help you decide how hot, cold, wet, or windy it might be!

Date:

Astronomy

Nov. 28, 2014 Rise Set
Actual Time 7:41 AM EST 5:10 PM EST
Civil Twilight 7:10 AM EST 5:40 PM EST
Nautical Twilight 6:36 AM EST 6:14 PM EST
Astronomical Twilight 6:03 AM EST 6:48 PM EST
Moon 12:31 PM EST (11/28) No Moon Set
Length of Visible Light 10h 30m
Length of Day
9h 29m
Waxing Crescent, 42% of the Moon is Illuminated
Nov 28
Waxing Crescent
Nov 29
First Quarter
Dec 6
Full
Dec 14
Last Quarter
Dec 21
New

Hourly Weather History & Observations

Time (EST) Temp. Windchill Dew Point Humidity Pressure Visibility Wind Dir Wind Speed Gust Speed Precip Events Conditions
12:53 AM 25.0 °F 16.3 °F 16.0 °F 69% 30.38 in 10.0 mi WNW 8.1 mph - N/A   Overcast
1:53 AM 25.0 °F 17.1 °F 17.1 °F 72% 30.38 in 10.0 mi NW 6.9 mph - N/A   Overcast
2:53 AM 24.1 °F 18.2 °F 18.0 °F 77% 30.39 in 8.0 mi WNW 4.6 mph - 0.00 in Snow Light Snow
3:44 AM 24.1 °F - 18.0 °F 77% 30.37 in 10.0 mi Calm Calm - 0.00 in   Overcast
3:53 AM 24.1 °F 19.7 °F 18.0 °F 77% 30.40 in 10.0 mi Variable 3.5 mph - 0.00 in   Overcast
4:53 AM 24.1 °F 18.2 °F 18.0 °F 77% 30.39 in 10.0 mi West 4.6 mph - N/A   Overcast
5:20 AM 23.0 °F 17.0 °F 18.0 °F 81% 30.35 in 10.0 mi WSW 4.6 mph - N/A   Scattered Clouds
5:53 AM 21.9 °F - 17.1 °F 82% 30.41 in 10.0 mi Calm Calm - N/A   Mostly Cloudy
6:04 AM 21.0 °F 16.2 °F 16.0 °F 81% 30.37 in 10.0 mi SW 3.5 mph - N/A   Scattered Clouds
6:53 AM 21.0 °F 14.6 °F 16.0 °F 81% 30.41 in 10.0 mi WSW 4.6 mph - N/A   Mostly Cloudy
7:53 AM 21.9 °F 17.2 °F 16.0 °F 78% 30.40 in 10.0 mi WSW 3.5 mph - N/A   Overcast
8:53 AM 21.9 °F 17.2 °F 15.1 °F 75% 30.38 in 10.0 mi SSW 3.5 mph - N/A   Overcast
9:53 AM 24.1 °F 16.0 °F 15.1 °F 69% 30.37 in 10.0 mi South 6.9 mph - N/A   Overcast
10:53 AM 26.1 °F 17.6 °F 15.1 °F 63% 30.36 in 10.0 mi SSW 8.1 mph - N/A   Overcast
11:53 AM 27.0 °F 16.1 °F 17.1 °F 66% 30.34 in 10.0 mi SSW 12.7 mph - N/A   Overcast
12:53 PM 27.0 °F 16.7 °F 18.0 °F 69% 30.30 in 7.0 mi SW 11.5 mph - 0.00 in Snow Light Snow
1:07 PM 27.0 °F 16.1 °F 19.0 °F 72% 30.26 in 2.0 mi SSW 12.7 mph - 0.00 in Snow Light Snow
1:11 PM 26.1 °F 16.2 °F 19.9 °F 78% 30.26 in 0.8 mi SSW 10.4 mph - 0.00 in Snow Light Snow
1:22 PM 26.1 °F 17.6 °F 21.0 °F 81% 30.25 in 0.8 mi SSW 8.1 mph - 0.00 in Snow Light Snow
1:30 PM 27.0 °F 18.7 °F 21.0 °F 78% 30.24 in 2.0 mi SSW 8.1 mph - 0.00 in Snow Light Snow
1:33 PM 27.0 °F 20.5 °F 21.0 °F 78% 30.24 in 2.5 mi South 5.8 mph - 0.00 in Snow Light Snow
1:36 PM 27.0 °F 19.5 °F 21.0 °F 78% 30.24 in 3.0 mi South 6.9 mph - 0.00 in Snow Light Snow
1:53 PM 27.0 °F 17.3 °F 19.9 °F 75% 30.26 in 5.0 mi SSW 10.4 mph - 0.00 in Snow Light Snow
2:30 PM 27.0 °F 18.0 °F 19.9 °F 75% 30.22 in 9.0 mi SSW 9.2 mph - 0.00 in   Overcast
2:39 PM 27.0 °F 18.0 °F 19.9 °F 75% 30.21 in 1.8 mi South 9.2 mph - 0.00 in Snow Light Snow
2:53 PM 27.0 °F 18.0 °F 21.9 °F 81% 30.24 in 1.8 mi South 9.2 mph - 0.00 in Snow Light Snow
2:55 PM 27.0 °F 18.0 °F 21.9 °F 81% 30.20 in 2.5 mi South 9.2 mph - 0.00 in Snow Light Snow
3:04 PM 27.0 °F 19.5 °F 21.9 °F 81% 30.20 in 4.0 mi South 6.9 mph - 0.00 in Snow Light Snow
3:21 PM 28.0 °F 20.0 °F 21.9 °F 78% 30.19 in 8.0 mi SSE 8.1 mph - 0.00 in   Mostly Cloudy
3:53 PM 28.9 °F 22.8 °F 21.9 °F 75% 30.21 in 9.0 mi SSE 5.8 mph - 0.00 in   Mostly Cloudy
4:53 PM 28.9 °F 23.9 °F 19.9 °F 69% 30.19 in 10.0 mi South 4.6 mph - N/A   Mostly Cloudy
5:53 PM 30.0 °F 22.4 °F 21.0 °F 69% 30.16 in 10.0 mi SSE 8.1 mph - N/A   Clear
6:53 PM 30.0 °F 23.2 °F 21.0 °F 69% 30.16 in 10.0 mi SSE 6.9 mph - N/A   Mostly Cloudy
7:53 PM 30.9 °F 22.8 °F 21.0 °F 67% 30.14 in 10.0 mi SSE 9.2 mph - N/A   Overcast
8:53 PM 30.0 °F 23.2 °F 19.9 °F 66% 30.13 in 10.0 mi South 6.9 mph - N/A   Overcast
9:53 PM 30.0 °F 23.2 °F 19.9 °F 66% 30.11 in 10.0 mi South 6.9 mph - N/A   Clear
10:53 PM 30.9 °F 22.2 °F 19.9 °F 64% 30.08 in 10.0 mi South 10.4 mph - N/A   Clear
11:53 PM 32.0 °F 24.2 °F 21.0 °F 64% 30.08 in 10.0 mi South 9.2 mph - N/A   Overcast